Location: Windsor
(43.2292°N, 89.3015°W)
Time: 21:44:49
(UTC+00:00)

MOZHAYETS 4 - Pass Details

Date: 02 July 2022
Orbit: 659 x 679 km, 98.2° (Epoch: 07 August)

Event Time Altitude Azimuth Distance (km) Brightness Sun altitude
Exits shadow 09:44:01 - 235° (SW) 2,303 9.8 -6.3°
Reaches altitude 10° 09:45:01 10° 245° (WSW) 2,109 9.7 -6.2°
Maximum altitude 09:46:57 12° 270° (W) 1,946 9.7 -5.9°
Drops below altitude 10° 09:48:54 10° 296° (WNW) 2,112 10.1 -5.6°
Sets 09:52:31 0° 325° (NW) 3,028 11.2 -5.1°
